Regional Weather Roundup
Issued by NWS Cleveland, OH

Home | Current Version | Previous Version | Graphics & Text | Print | Product List | Glossary On
Versions: 1 2 3 4 5 6 7 8 9 10 11 12 13 14 15 16 17 18 19 20 21 22 23 24 25 26 27 28 29 30 31 32 33 34 35 36 37 38 39 40 41 42 43 44 45 46 47 48 49 50
000
ASUS41 KCLE 281210
RWRCLE
OHIO REGIONAL WEATHER ROUNDUP
NATIONAL WEATHER SERVICE CLEVELAND, OH
700 AM EST WED JAN 28 2015

NOTE: "FAIR" INDICATES FEW OR NO CLOUDS BELOW 12,000 FEET WITH NO
SIGNIFICANT WEATHER AND/OR OBSTRUCTIONS TO VISIBILITY.

OHZ001>008-015>018-024>027-034-035-043-044-281300-
   NORTHWEST OHIO

CITY           SKY/WX    TMP DP  RH WIND       PRES   REMARKS
DEFIANCE       PTCLDY     4  -1  80 CALM      30.35R
FINDLAY        PTCLDY     4   0  83 CALM      30.33R
TOLEDO EXPRESS PTCLDY     4   1  88 CALM      30.34R
TOLEDO EXEC    PTCLDY    11   5  77 CALM      30.35R
LIMA           MOCLDY     3  -2  79 S3        30.32R HAZE
$$

OHZ009>014-019>023-028>033-038-089-281300-
   NORTHEAST OHIO

CITY           SKY/WX    TMP DP  RH WIND       PRES   REMARKS
CLE-HOPKINS    PTCLDY     3   0  87 SW5       30.33R WCI  -6
CLE-LAKEFRONT  PTCLDY    11   7  84 SW7       30.31R WCI   0
CUY CO. ARPT   CLEAR      5   1  85 CALM      30.29
LORAIN-ELYRIA  PTCLDY     2  -2  83 CALM      30.32R
ASHTABULA      MOCLDY    -6 -10  83 CALM      30.27R
AKRON-CANTON   MOCLDY     6   1  80 W6        30.26R HAZE    WCI  -4
WOOSTER        MOCLDY   -10 -14  82 W3        30.29R
MANSFIELD      PTCLDY     8   6  92 W6        30.29R WCI  -2
YOUNGSTOWN     PTCLDY     2  -1  88 SW3       30.24R
$$

OHZ042-051>053-060>062-070>072-077>081-281300-
  SOUTHWEST OHIO

CITY           SKY/WX    TMP DP  RH WIND       PRES   REMARKS
CINC-COVINGTON CLEAR     14  10  84 CALM      30.33R FOG
CINC-LUNKEN    PTCLDY    12  10  92 NE3       30.39R FOG
HAMILTON       PTCLDY     9   6  88 CALM      30.36R FOG
DAYTON         PTCLDY     9   5  84 CALM      30.32S FOG
WRIGHT-PAT AFB CLEAR      5   1  85 CALM      30.34R
DAYTON GENERAL PTCLDY    10   7  87 CALM      30.32R FOG
WILMINGTON     PTCLDY     9   5  84 CALM      30.32R FOG
$$

OHZ036-037-039>041-045>050-054>059-063>069-073>076-082>088-281300-
  CENTRAL AND SOUTHEAST OHIO

CITY           SKY/WX    TMP DP  RH WIND       PRES   REMARKS
COLUMBUS       PTCLDY     7   3  84 CALM      30.34R FOG
OSU AIRPORT    PTCLDY     5   1  83 W3        30.34R FOG
BOLTON FIELD   NOT AVBL
RICKENBACK AFB PTCLDY     5   2  88 CALM      30.35R
NEWARK         PTCLDY    -2  -6  83 CALM      30.33R
MARION         PTCLDY    -4 -10  75 CALM      30.33R HAZE
LANCASTER      PTCLDY     1  -3  83 CALM      30.34R
ZANESVILLE     PTCLDY     6   3  87 W5        30.32R FOG     WCI  -3
NEW PHILLY     CLOUDY    14  11  87 SW3       30.31R
$$



USA.gov is the U.S. government's official web portal to all federal, state and local government web resources and services.